Flight Track Log - Related Links

Times and Time Zones

All times are in EDT time to prevent confusion due to time zone crossing. See the WWW853 flight status page for this flight to view local times or setup timezone preferences in your user account.

Time Position Orientation Groundspeed Altitude Reporting Facility
EDT Latitude Longitude Course Direction KTS MPH feet Rate Location/Type
Mon 05:38:16 PM 37.8436 -116.7428 186° South 294 338 10,000  Level Los Angeles Center
Mon 05:39:18 PM 37.8319 -116.8397 261° West 314 361 11,900 2,516 Climbing Los Angeles Center
Mon 05:40:20 PM 37.7403 -116.8153 168° South 347 399 15,200 3,290 Climbing Los Angeles Center
Mon 05:41:22 PM 37.6317 -116.7400 151° Southeast 369 425 18,700 1,839 Climbing Los Angeles Center
Mon 05:42:24 PM 37.5342 -116.6761 153° Southeast 388 447 19,000 132 Climbing Los Angeles Center
Mon 05:43:00 PM 37.7249 -117.2134 186° South  Level FlightAware Approximate
Mon 05:43:38 PM 37.4372 -116.6106 152° Southeast 393 452 19,000  Level Los Angeles Center
Mon 05:44:40 PM 37.3350 -116.5092 142° Southeast 403 464 19,000  Level Los Angeles Center
Mon 05:45:42 PM 37.2569 -116.4136 136° Southeast 395 455 19,000  Level Los Angeles Center
Mon 05:46:44 PM 37.1561 -116.3614 158° South 389 448 19,000  Level Los Angeles Center
Mon 05:48:00 PM 37.0653 -116.2575 138° Southeast  Level Estimated
Mon 05:48:48 PM 36.9367 -116.2392 138° Southeast 390 449 19,000  Level Los Angeles Center
Mon 05:49:50 PM 36.8525 -116.1503 140° Southeast 398 458 19,000  Level Los Angeles Center
Mon 05:50:51 PM 36.7714 -116.0581 138° Southeast 396 456 19,000  Level Los Angeles Center
Mon 05:52:55 PM 36.5994 -115.8656 138° Southeast 394 453 19,000 -84 Level Los Angeles Center
Mon 05:54:26 PM 36.4625 -115.7642 149° Southeast 362 417 18,700 -387 Descending Los Angeles Center
Mon 05:54:59 PM 36.4264 -115.7336 146° Southeast 359 413 18,200 -1,343 Descending Los Angeles Center
Mon 05:55:33 PM 36.3789 -115.6739 135° Southeast 374 430 17,200 -1,468 Descending Los Angeles Center
Mon 05:56:33 PM 36.3172 -115.5767 128° Southeast 352 405 15,900 -1,091 Descending Los Angeles Center
Mon 05:57:34 PM 36.2528 -115.5069 139° Southeast 316 364 15,000 -750 Descending Los Angeles Center
Mon 05:58:41 PM 36.1714 -115.5203 188° South 249 287 14,300 -774 Descending Los Angeles Center
Mon 05:59:07 PM 36.1511 -115.5222 184° South 261 300 13,800 -1,418 Descending Los Angeles Center
Mon 05:59:36 PM 36.1117 -115.5236 182° South 247 284 13,000 -1,258 Descending Los Angeles Center
Mon 06:00:09 PM 36.0828 -115.5208 176° South 247 284 12,500 -947 Descending Los Angeles Center
Mon 06:01:11 PM 36.0175 -115.5183 178° South 239 275 11,500 -957 Descending Los Angeles Center
Mon 06:01:43 PM 35.9789 -115.5481 212° Southwest 236 272 11,000 -484 Descending Los Angeles Center
Mon 06:02:13 PM 35.9556 -115.5669 213° Southwest 237 273 11,000  Level Los Angeles Center
Mon 06:02:50 PM 35.9167 -115.6000 215° Southwest 234 269 11,000  Level Los Angeles Center
Mon 06:03:15 PM 35.8925 -115.5886 159° South 232 267 11,000  Level Los Angeles Center
Mon 06:03:45 PM 35.8578 -115.5767 164° South 238 274 11,000 -484 Level Los Angeles Center
Mon 06:05:19 PM 35.8156 -115.4681 116° Southeast 240 276 10,000 -806 Descending Los Angeles Center
Mon 06:05:59 PM 35.8022 -115.4092 106° East 247 284 9,200 -1,065 Descending Los Angeles Center
Mon 06:06:21 PM 35.8111 -115.3889 62° Northeast 249 287 8,900 -1,180 Descending Los Angeles Center
Mon 06:07:00 PM 35.8583 -115.3592 27° Northeast 252 290 8,000 -1,065 Descending Los Angeles Center
Mon 06:07:23 PM 35.8722 -115.3522 22° Northeast 250 288 7,800 -689 Descending Los Angeles Center
Mon 06:08:01 PM 35.9228 -115.3381 13° North 236 272 7,300 -1,317 Descending Los Angeles Center
Mon 06:09:26 PM 36.0119 -115.3239 North 234 269 5,100 -1,323 Descending Los Angeles Center
Mon 06:10:08 PM 36.0508 -115.3203 North 191 220 4,500 -619 Descending Los Angeles Center
Mon 06:11:03 PM 36.0722 -115.2892 50° Northeast 153 176 4,100 -500 Descending Los Angeles Center
Mon 06:12:08 PM 36.0747 -115.2336 87° East 145 167 3,500 456 Descending Los Angeles Center
Mon 06:13:54 PM 36.0656 -115.1106 95° East 205 236 5,400 1,161 Climbing Los Angeles Center
Mon 06:14:12 PM 36.0669 -115.0992 81° East 195 224 5,900 1,600 Climbing Los Angeles Center
Mon 06:14:54 PM 36.0475 -115.0472 115° Southeast 195 224 7,000 1,082 Climbing Los Angeles Center
Mon 06:15:13 PM 36.0450 -115.0369 107° East 199 229 7,000  Level Los Angeles Center
Mon 06:16:01 PM 36.0133 -114.9894 129° Southeast 184 212 7,000 -190 Level Los Angeles Center
Mon 06:16:16 PM 36.0108 -114.9778 105° East 182 209 6,800 -982 Descending Los Angeles Center
Mon 06:16:56 PM 36.0200 -114.9314 76° East 198 228 6,100 -1,161 Descending Los Angeles Center
Mon 06:17:18 PM 36.0267 -114.9122 67° East 192 221 5,600 -492 Descending Los Angeles Center
Mon 06:17:57 PM 36.0672 -114.9103 North 214 246 5,600 -623 Level Los Angeles Center
Mon 06:19:04 PM 36.0722 -114.9725 276° West 193 222 4,500 -918 Descending Los Angeles Center
Mon 06:19:22 PM 36.0731 -114.9839 275° West 197 227 4,300 -825 Descending Los Angeles Center
Mon 06:20:24 PM 36.0747 -115.0461 272° West 189 217 3,400 -871 Descending Los Angeles Center
Mon 06:22:00 PM 36.0667 -115.1500 270° West  Level FlightAware Approximate
Mon 06:29:00 PM 36.0801 -115.1523 270° West  Level Estimated
Mon 06:30:00 PM 36.0801 -115.1523 270° West  Level Estimated

Login

Don't have an account? Register now (free) for customized features, flight alerts, and more!